FW9014 Weather Reports


Display with metric or nautical units.
time (UTC)temp
F
wind
direction
speed
MPH
gust
MPH
rain 1hr
in
rain 24hr
in
rain mn
in
humidity
%
barometer
mb
20260508121601 65 0 0.0 2.0 0.00 0.01 0.00 85 1014.1
20260508120047 65 0 0.0 2.0 0.00 0.01 0.00 85 1013.5
20260508114549 65 0 0.0 3.0 0.00 0.01 0.00 85 1013.4
20260508113049 65 0 0.0 7.0 0.00 0.01 0.00 85 1013.1
20260508111547 65 153 1.0 4.0 0.00 0.01 0.00 85 1013.4
20260508110053 65 103 0.0 3.0 0.00 0.01 0.00 86 1013.5
20260508104545 65 45 1.0 5.0 0.00 0.01 0.00 85 1013.9
20260508103053 65 157 2.0 5.0 0.00 0.01 0.00 85 1014.2
20260508101548 64 46 0.0 3.0 0.00 0.01 0.00 85 1014.5
20260508100052 64 67 1.0 7.0 0.00 0.01 0.00 85 1014.2
20260508094600 64 0 1.0 8.0 0.00 0.01 0.00 85 1014.0
20260508093050 64 92 3.0 8.0 0.00 0.01 0.00 85 1013.9
20260508091545 64 52 0.0 4.0 0.00 0.01 0.00 85 1013.9
20260508090051 64 65 0.0 2.0 0.00 0.01 0.00 85 1014.1
20260508084550 64 0 1.0 4.0 0.00 0.01 0.00 85 1014.0
20260508083130 64 100 1.0 7.0 0.00 0.01 0.00 84 1014.1
20260508081553 64 84 2.0 6.0 0.00 0.01 0.00 84 1014.0
20260508080056 64 99 1.0 6.0 0.00 0.01 0.00 84 1013.9
20260508074550 64 65 1.0 7.0 0.00 0.01 0.00 85 1014.4
20260508073055 64 0 2.0 7.0 0.00 0.01 0.00 85 1014.7
20260508071551 64 58 0.0 6.0 0.00 0.01 0.00 84 1014.2
20260508070057 64 96 1.0 6.0 0.00 0.01 0.00 83 1014.4
20260508064607 65 0 0.0 4.0 0.00 0.01 0.00 83 1014.9
20260508063047 65 0 4.0 10.0 0.00 0.01 0.00 84 1015.4
20260508061548 64 336 1.0 9.0 0.00 0.01 0.00 84 1014.7
20260508060046 65 112 1.0 10.0 0.00 0.01 0.00 84 1014.1
20260508054554 64 352 4.0 8.0 0.00 0.01 0.00 84 1015.3
20260508053048 65 0 0.0 3.0 0.00 0.01 0.00 83 1014.2
20260508051550 65 40 2.0 6.0 0.00 0.01 0.00 83 1014.7
20260508050050 65 72 0.0 2.0 0.00 0.01 0.00 81 1014.7
20260508044546 66 0 0.0 8.0 0.00 0.01 0.01 81 1015.1
20260508043045 66 0 1.0 4.0 0.00 0.01 0.01 80 1014.7
20260508041548 66 148 2.0 10.0 0.00 0.01 0.01 81 1014.1
20260508040050 66 120 2.0 8.0 0.00 0.01 0.01 80 1014.5
20260508034551 66 0 0.0 4.0 0.00 0.01 0.01 80 1015.0
20260508033048 66 113 2.0 5.0 0.00 0.01 0.01 79 1014.8
20260508031547 66 159 1.0 4.0 0.00 0.01 0.01 79 1015.2
20260508030107 66 88 1.0 4.0 0.00 0.01 0.01 78 1015.2
20260508024558 67 0 0.0 2.0 0.00 0.01 0.01 78 1015.1
20260508023046 67 0 0.0 3.0 0.00 0.01 0.01 77 1015.6
20260508021548 67 0 0.0 3.0 0.00 0.01 0.01 76 1015.5
20260508020049 68 0 0.0 3.0 0.00 0.01 0.01 76 1015.4
20260508014546 68 52 0.0 4.0 0.00 0.01 0.01 75 1015.2
20260508013045 68 21 2.0 4.0 0.00 0.01 0.01 75 1015.1
20260508011600 68 137 3.0 8.0 0.00 0.01 0.01 74 1014.9
20260508010058 69 0 1.0 4.0 0.00 0.01 0.01 73 1014.6
20260508004557 69 0 0.0 5.0 0.00 0.01 0.01 72 1014.6
20260508003049 70 0 3.0 6.0 0.00 0.01 0.01 71 1014.9
20260508001547 70 59 1.0 5.0 0.00 0.01 0.01 70 1014.5
20260508000053 71 59 1.0 8.0 0.00 0.01 0.01 69 1014.7
20260507234551 72 36 3.0 9.0 0.00 0.01 0.01 68 1014.8
20260507233048 72 45 3.0 7.0 0.00 0.01 0.01 67 1014.5
20260507231604 73 52 0.0 7.0 0.00 0.01 0.01 67 1014.4
20260507230051 73 360 2.0 7.0 0.00 0.01 0.01 66 1014.6
20260507224557 74 38 3.0 8.0 0.00 0.01 0.01 66 1014.8
20260507223044 74 34 2.0 9.0 0.00 0.01 0.01 65 1014.9
20260507221550 74 28 4.0 10.0 0.00 0.01 0.01 63 1015.1
20260507220048 75 55 3.0 9.0 0.00 0.01 0.01 62 1014.5
20260507214548 76 15 5.0 12.0 0.00 0.01 0.01 60 1014.7
20260507213102 76 5 2.0 7.0 0.00 0.01 0.01 61 1014.6
20260507211546 75 86 3.0 14.0 0.00 0.01 0.01 63 1014.6
20260507210055 76 69 3.0 12.0 0.00 0.01 0.01 61 1014.7
20260507204600 77 19 4.0 10.0 0.00 0.01 0.01 60 1015.3
20260507203048 76 45 3.0 10.0 0.00 0.01 0.01 59 1015.4
20260507201547 75 5 7.0 15.0 0.00 0.01 0.01 60 1015.4
20260507200046 75 0 2.0 12.0 0.00 0.01 0.01 62 1015.7
20260507194546 74 36 3.0 11.0 0.00 0.01 0.01 63 1015.7
20260507193053 73 96 4.0 13.0 0.00 0.01 0.01 63 1016.3
20260507191549 74 44 3.0 11.0 0.00 0.01 0.01 63 1016.1
20260507190055 74 136 4.0 10.0 0.00 0.01 0.01 62 1015.8
20260507184547 73 0 1.0 9.0 0.00 0.01 0.01 66 1015.9
20260507183048 72 11 8.0 12.0 0.00 0.01 0.01 69 1016.6
20260507181546 72 325 1.0 10.0 0.00 0.01 0.01 69 1016.5
20260507180050 70 360 6.0 13.0 0.00 0.01 0.01 69 1016.6
20260507174549 69 9 9.0 14.0 0.00 0.01 0.01 72 1017.1
20260507173053 69 13 9.0 12.0 0.00 0.01 0.01 73 1017.2
20260507171549 68 9 6.0 13.0 0.00 0.01 0.01 74 1016.8
20260507170056 68 13 6.0 15.0 0.00 0.01 0.01 74 1017.0
20260507164546 68 85 3.0 9.0 0.00 0.01 0.01 74 1017.1
20260507163051 67 108 6.0 11.0 0.00 0.01 0.01 76 1016.5
20260507161548 65 82 3.0 11.0 0.00 0.01 0.01 79 1016.4
20260507160059 63 80 4.0 12.0 0.00 0.01 0.01 80 1016.5
20260507154548 63 5 6.0 12.0 0.00 0.02 0.01 81 1017.0
20260507153055 62 337 2.0 9.0 0.00 0.02 0.01 83 1017.4
20260507151549 61 24 4.0 14.0 0.00 0.02 0.01 84 1017.7
20260507150052 60 39 9.0 14.0 0.00 0.02 0.01 84 1017.5
20260507144551 60 19 1.0 9.0 0.01 0.02 0.01 86 1017.6
20260507143048 60 66 3.0 10.0 0.01 0.02 0.01 87 1017.7
20260507141600 59 78 2.0 9.0 0.01 0.02 0.01 88 1017.9
20260507140116 59 19 3.0 14.0 0.01 0.02 0.01 88 1017.8
20260507134553 59 16 4.0 14.0 0.00 0.01 0.00 88 1017.8
20260507133051 59 13 4.0 12.0 0.00 0.01 0.00 88 1017.7
20260507131600 59 32 2.0 11.0 0.00 0.01 0.00 87 1017.7
20260507130108 59 20 11.0 15.0 0.00 0.01 0.00 87 1017.5
20260507124605 58 15 3.0 8.0 0.00 0.01 0.00 87 1017.4
20260507123055 59 82 3.0 10.0 0.00 0.01 0.00 87 1016.5